Location: Foligno
(42.9600°N, 12.7050°E)
Time: 07:23:07
(UTC+02:00)

ISS - Pass Details

Date: 23 May 2018
Orbit: 402 x 407 km, 51.6° (Epoch: 24 May)

Event Time Altitude Azimuth Distance (km) Brightness Sun altitude
Rises 23:43:48 0° 286° (WNW) 2,318 0.5 -23.6°
Reaches altitude 10° 23:46:19 10° 306° (NW) 1,458 -0.3 -23.7°
Maximum altitude 23:48:42 19° 353° (N) 1,053 -0.9 -23.9°
Drops below altitude 10° 23:51:05 10° 40° (NE) 1,458 -0.7 -24.0°
Sets 23:53:36 0° 60° (ENE) 2,318 0.2 -24.2°
